Location: Piotrkow Trybunalski
(51.4000°N, 19.6830°E)
Time: 14:21:42
(UTC+01:00)

Vanguard 2 - Pass Details

Date: 06 February 2023
Orbit: 553 x 2927 km, 32.9° (Epoch: 24 March)

Event Time Altitude Azimuth Distance (km) Brightness Sun altitude
Rises 18:31:53 0° 183° (S) 4,744 11.7 -17.7°
Reaches altitude 10° 18:37:15 10° 159° (SSE) 4,285 11.1 -18.6°
Maximum altitude 18:42:09 13° 134° (SE) 4,426 11.0 -19.3°
Enters shadow 18:43:49 13° 126° (SE) 4,582 11.0 -19.6°
Drops below altitude 10° 18:47:49 10° 111° (ESE) 5,117 - -20.2°
Sets 18:55:42 0° 90° (E) 6,546 - -21.5°
